RYR61SZ LFOB-LPPR

Flight info

Callsign RYR61SZ
Flight time 1h 55m
Altitude 35000
Route LGL UT176 TERPO UN872 ERIGA UZ218 FUJTI/N0444F390 DCT ATLEN DCT INSID T326 ASPOR
Aircraft B38M/M-SDE1FGHILORVWXY/HB1

Departure

Time 2026-04-22 19:26
Airport Beauvais-Tillé airport (LFOB)

Arrival

Time 2026-04-22 21:22
Airport Francisco de Sá Carneiro Airport (LPPR)
Time Latitude Longitude Altitude Speed Heading
2026-04-22 18:51 49.45925 2.11475 358 ft 0 kts 311°
2026-04-22 19:17 49.45924 2.11477 344 ft 2 kts 311°
2026-04-22 19:17 49.45904 2.11510 358 ft 4 kts 308°
2026-04-22 19:17 49.45893 2.11545 354 ft 4 kts 277°
2026-04-22 19:17 49.45893 2.11570 354 ft 4 kts 248°
2026-04-22 19:18 49.45902 2.11590 362 ft 1 kts 221°
2026-04-22 19:20 49.45896 2.11582 354 ft 4 kts 221°
2026-04-22 19:20 49.45853 2.11523 353 ft 13 kts 224°
2026-04-22 19:20 49.45771 2.11402 349 ft 18 kts 221°
2026-04-22 19:20 49.45701 2.11304 355 ft 11 kts 238°
2026-04-22 19:21 49.45707 2.11229 350 ft 7 kts 298°
2026-04-22 19:21 49.45736 2.11160 349 ft 9 kts 303°
2026-04-22 19:21 49.45774 2.11073 355 ft 10 kts 303°
2026-04-22 19:21 49.45790 2.11005 356 ft 7 kts 260°
2026-04-22 19:22 49.45779 2.10981 360 ft 3 kts 213°
2026-04-22 19:22 49.45772 2.10976 355 ft 0 kts 207°
2026-04-22 19:23 49.45768 2.10973 352 ft 3 kts 207°
2026-04-22 19:23 49.45720 2.10934 357 ft 13 kts 208°
2026-04-22 19:23 49.45650 2.10836 356 ft 15 kts 269°
2026-04-22 19:24 49.45702 2.10685 356 ft 17 kts 303°
2026-04-22 19:24 49.45764 2.10542 364 ft 12 kts 303°
2026-04-22 19:24 49.45823 2.10476 364 ft 7 kts 338°
2026-04-22 19:24 49.45847 2.10442 362 ft 3 kts 270°
2026-04-22 19:25 49.45829 2.10421 365 ft 3 kts 180°
2026-04-22 19:25 49.45801 2.10458 361 ft 6 kts 123°
2026-04-22 19:25 49.45800 2.10459 361 ft 0 kts 123°
2026-04-22 19:25 49.45788 2.10487 363 ft 18 kts 123°
2026-04-22 19:26 49.45576 2.10976 358 ft 90 kts 124°
2026-04-22 19:26 49.45104 2.12060 336 ft 151 kts 124°
2026-04-22 19:26 49.44484 2.13502 775 ft 167 kts 120°
2026-04-22 19:26 49.44056 2.15213 1227 ft 176 kts 88°
2026-04-22 19:27 49.44518 2.16796 1959 ft 172 kts 48°
2026-04-22 19:27 49.45656 2.17712 2102 ft 200 kts 16°
2026-04-22 19:27 49.47101 2.17369 2576 ft 226 kts 335°
2026-04-22 19:27 49.48220 2.15547 3237 ft 246 kts 299°
2026-04-22 19:28 49.48828 2.13013 3893 ft 259 kts 283°
2026-04-22 19:28 49.48946 2.10224 4585 ft 267 kts 268°
2026-04-22 19:28 49.49007 2.07368 5504 ft 266 kts 271°
2026-04-22 19:28 49.48809 2.04568 6343 ft 263 kts 246°
2026-04-22 19:29 49.47851 2.02222 7097 ft 260 kts 221°
2026-04-22 19:29 49.46411 2.00546 7814 ft 262 kts 209°
2026-04-22 19:29 49.44823 1.98965 8044 ft 278 kts 210°
2026-04-22 19:29 49.43159 1.97286 8279 ft 291 kts 210°
2026-04-22 19:30 49.42047 1.96157 8876 ft 288 kts 210°
2026-04-22 19:30 49.39809 1.93884 9898 ft 295 kts 210°
2026-04-22 19:30 49.38081 1.92130 10585 ft 302 kts 210°
2026-04-22 19:30 49.36272 1.90300 10928 ft 320 kts 211°
2026-04-22 19:31 49.34372 1.88374 11385 ft 334 kts 211°
2026-04-22 19:31 49.32415 1.86392 12069 ft 339 kts 211°
2026-04-22 19:31 49.30430 1.84384 12836 ft 343 kts 211°
2026-04-22 19:31 49.28422 1.82357 13594 ft 347 kts 211°
2026-04-22 19:32 49.26389 1.80305 14342 ft 352 kts 211°
2026-04-22 19:32 49.24351 1.78252 15044 ft 356 kts 212°
2026-04-22 19:32 49.22330 1.76030 15771 ft 361 kts 221°
2026-04-22 19:32 49.20723 1.73073 16485 ft 365 kts 241°
2026-04-22 19:33 49.19679 1.69523 17202 ft 368 kts 247°
2026-04-22 19:33 49.18544 1.66008 17888 ft 372 kts 243°
2026-04-22 19:33 49.17333 1.62479 18597 ft 375 kts 243°
2026-04-22 19:33 49.16116 1.58926 19193 ft 378 kts 244°
2026-04-22 19:34 49.14891 1.55357 19800 ft 380 kts 244°
2026-04-22 19:34 49.13656 1.51763 20387 ft 383 kts 245°
2026-04-22 19:34 49.12418 1.48164 20982 ft 385 kts 245°
2026-04-22 19:34 49.11165 1.44528 21562 ft 388 kts 245°
2026-04-22 19:35 49.09919 1.40918 22131 ft 390 kts 246°
2026-04-22 19:35 49.08651 1.37246 22696 ft 393 kts 246°
2026-04-22 19:35 49.07369 1.33541 23263 ft 395 kts 246°
2026-04-22 19:35 49.06078 1.29814 23809 ft 398 kts 246°
2026-04-22 19:36 49.04780 1.26074 24263 ft 401 kts 246°
2026-04-22 19:36 49.03474 1.22316 24741 ft 402 kts 246°
2026-04-22 19:36 49.02159 1.18535 25201 ft 404 kts 246°
2026-04-22 19:36 49.00839 1.14748 25666 ft 405 kts 246°
2026-04-22 19:37 48.99511 1.10942 26124 ft 407 kts 246°
2026-04-22 19:37 48.98178 1.07127 26572 ft 409 kts 246°
2026-04-22 19:37 48.96839 1.03302 27004 ft 410 kts 246°
2026-04-22 19:37 48.95489 0.99450 27441 ft 412 kts 246°
2026-04-22 19:38 48.94151 0.95637 27840 ft 414 kts 246°
2026-04-22 19:38 48.92788 0.91760 28256 ft 416 kts 246°
2026-04-22 19:38 48.91417 0.87867 28651 ft 418 kts 246°
2026-04-22 19:38 48.90042 0.83966 29043 ft 420 kts 246°
2026-04-22 19:39 48.88660 0.80052 29426 ft 422 kts 246°
2026-04-22 19:39 48.87267 0.76113 29808 ft 424 kts 245°
2026-04-22 19:39 48.85857 0.72169 30186 ft 426 kts 244°
2026-04-22 19:39 48.84109 0.68493 30496 ft 435 kts 229°
2026-04-22 19:40 48.81820 0.65462 30865 ft 438 kts 224°
2026-04-22 19:40 48.79515 0.62428 31097 ft 439 kts 228°
2026-04-22 19:40 48.77305 0.59214 31403 ft 440 kts 228°
2026-04-22 19:40 48.75084 0.55986 31700 ft 442 kts 228°
2026-04-22 19:41 48.72862 0.52763 31995 ft 444 kts 228°
2026-04-22 19:41 48.70628 0.49528 32298 ft 445 kts 228°
2026-04-22 19:41 48.68382 0.46280 32595 ft 446 kts 228°
2026-04-22 19:41 48.66145 0.43050 32971 ft 446 kts 228°
2026-04-22 19:42 48.63923 0.39844 33399 ft 444 kts 228°
2026-04-22 19:42 48.61692 0.36631 33815 ft 442 kts 228°
2026-04-22 19:42 48.59469 0.33432 34227 ft 440 kts 228°
2026-04-22 19:42 48.57253 0.30249 34572 ft 439 kts 228°
2026-04-22 19:43 48.52830 0.23906 35157 ft 438 kts 228°
2026-04-22 19:43 48.48406 0.17578 35206 ft 435 kts 228°
2026-04-22 19:44 48.44012 0.11308 35194 ft 434 kts 228°
2026-04-22 19:44 48.39643 0.05090 35195 ft 434 kts 228°
2026-04-22 19:45 48.35243 -0.01158 35192 ft 434 kts 228°
2026-04-22 19:45 48.30838 -0.07396 35187 ft 433 kts 228°
2026-04-22 19:46 48.26474 -0.13561 35187 ft 433 kts 228°
2026-04-22 19:46 48.22074 -0.19762 35184 ft 432 kts 228°
2026-04-22 19:47 48.17716 -0.25889 35177 ft 431 kts 227°
2026-04-22 19:47 48.13333 -0.32035 35163 ft 431 kts 227°
2026-04-22 19:48 48.08979 -0.38126 35166 ft 430 kts 227°
2026-04-22 19:48 48.04607 -0.44228 35161 ft 429 kts 227°
2026-04-22 19:49 48.00234 -0.50316 35156 ft 429 kts 227°
2026-04-22 19:49 47.95865 -0.56383 35156 ft 428 kts 227°
2026-04-22 19:50 47.91523 -0.62398 35155 ft 428 kts 227°
2026-04-22 19:50 47.87158 -0.68431 35154 ft 427 kts 227°
2026-04-22 19:51 47.82788 -0.74457 35145 ft 427 kts 227°
2026-04-22 19:51 47.78456 -0.80415 35141 ft 427 kts 227°
2026-04-22 19:52 47.74090 -0.86406 35139 ft 426 kts 227°
2026-04-22 19:52 47.69711 -0.92400 35137 ft 426 kts 227°
2026-04-22 19:53 47.65371 -0.98327 35127 ft 426 kts 227°
2026-04-22 19:53 47.60994 -1.04291 35134 ft 426 kts 227°
2026-04-22 19:54 47.56651 -1.10194 35118 ft 425 kts 227°
2026-04-22 19:54 47.52285 -1.16115 35127 ft 425 kts 227°
2026-04-22 19:55 47.47923 -1.22015 35124 ft 425 kts 226°
2026-04-22 19:55 47.43573 -1.27886 35125 ft 425 kts 226°
2026-04-22 19:56 47.39201 -1.33773 35115 ft 425 kts 226°
2026-04-22 19:56 47.34827 -1.39647 35108 ft 424 kts 226°
2026-04-22 19:57 47.30450 -1.45514 35106 ft 424 kts 226°
2026-04-22 19:57 47.26075 -1.51364 35100 ft 424 kts 226°
2026-04-22 19:58 47.21740 -1.57145 35104 ft 424 kts 226°
2026-04-22 19:58 47.17367 -1.62965 35100 ft 424 kts 226°
2026-04-22 20:00 47.02043 -1.83252 35093 ft 423 kts 226°
2026-04-22 20:01 46.97664 -1.89020 35090 ft 423 kts 226°
2026-04-22 20:01 46.93309 -1.94742 35088 ft 423 kts 226°
2026-04-22 20:02 46.89673 -1.99510 35080 ft 422 kts 226°
2026-04-22 20:02 46.85286 -2.05251 35079 ft 422 kts 226°
2026-04-22 20:03 46.80194 -2.11897 35077 ft 422 kts 226°
2026-04-22 20:03 46.76518 -2.16685 35079 ft 422 kts 226°
2026-04-22 20:04 46.72160 -2.22348 35076 ft 421 kts 226°
2026-04-22 20:04 46.67776 -2.28033 35075 ft 422 kts 226°
2026-04-22 20:05 46.63386 -2.33714 35072 ft 422 kts 226°
2026-04-22 20:05 46.59008 -2.39365 35069 ft 422 kts 226°
2026-04-22 20:06 46.54606 -2.45035 35071 ft 423 kts 226°
2026-04-22 20:06 46.50198 -2.50699 35072 ft 423 kts 225°
2026-04-22 20:07 46.45805 -2.56331 35069 ft 423 kts 225°
2026-04-22 20:07 46.41378 -2.61995 35067 ft 423 kts 225°
2026-04-22 20:08 46.36984 -2.67604 35066 ft 423 kts 225°
2026-04-22 20:08 46.32559 -2.73239 35068 ft 423 kts 225°
2026-04-22 20:09 46.28124 -2.78874 35069 ft 423 kts 225°
2026-04-22 20:09 46.23726 -2.84451 35067 ft 423 kts 225°
2026-04-22 20:10 46.19295 -2.90057 35260 ft 423 kts 224°
2026-04-22 20:10 46.17084 -2.92849 35558 ft 423 kts 224°
2026-04-22 20:10 46.14866 -2.95647 35817 ft 423 kts 224°
2026-04-22 20:10 46.12645 -2.98445 36083 ft 423 kts 224°
2026-04-22 20:11 46.10435 -3.01228 36337 ft 423 kts 224°
2026-04-22 20:11 46.08215 -3.04019 36593 ft 423 kts 224°
2026-04-22 20:11 46.06001 -3.06800 36836 ft 422 kts 224°
2026-04-22 20:11 46.03809 -3.09550 37074 ft 422 kts 224°
2026-04-22 20:12 46.01593 -3.12327 37315 ft 422 kts 224°
2026-04-22 20:12 45.99378 -3.15099 37555 ft 422 kts 224°
2026-04-22 20:12 45.97167 -3.17863 37794 ft 421 kts 224°
2026-04-22 20:12 45.94952 -3.20630 38021 ft 421 kts 224°
2026-04-22 20:13 45.92741 -3.23388 38232 ft 420 kts 224°
2026-04-22 20:13 45.90531 -3.26142 38468 ft 420 kts 224°
2026-04-22 20:13 45.88326 -3.28888 38666 ft 419 kts 224°
2026-04-22 20:13 45.86124 -3.31626 38837 ft 419 kts 224°
2026-04-22 20:14 45.83918 -3.34367 38989 ft 418 kts 224°
2026-04-22 20:14 45.79512 -3.39831 39084 ft 420 kts 224°
2026-04-22 20:15 45.75120 -3.45267 39079 ft 419 kts 224°
2026-04-22 20:15 45.70705 -3.50719 39081 ft 419 kts 224°
2026-04-22 20:16 45.66277 -3.56175 39081 ft 420 kts 224°
2026-04-22 20:16 45.61850 -3.61618 39082 ft 419 kts 224°
2026-04-22 20:17 45.57416 -3.67058 39083 ft 419 kts 223°
2026-04-22 20:17 45.53014 -3.72447 39084 ft 419 kts 223°
2026-04-22 20:18 45.48583 -3.77860 39086 ft 419 kts 223°
2026-04-22 20:18 45.44153 -3.83259 39088 ft 419 kts 223°
2026-04-22 20:19 45.39718 -3.88654 39088 ft 418 kts 223°
2026-04-22 20:19 45.35315 -3.93999 39094 ft 418 kts 223°
2026-04-22 20:20 45.30889 -3.99359 39094 ft 418 kts 223°
2026-04-22 20:20 45.26458 -4.04714 39103 ft 418 kts 223°
2026-04-22 20:21 45.22024 -4.10063 39088 ft 417 kts 223°
2026-04-22 20:21 45.17609 -4.15376 39092 ft 417 kts 223°
2026-04-22 20:22 45.13180 -4.20695 39100 ft 417 kts 223°
2026-04-22 20:22 45.08779 -4.25969 39104 ft 416 kts 222°
2026-04-22 20:23 45.04357 -4.31258 39103 ft 416 kts 222°
2026-04-22 20:23 44.99927 -4.36544 39106 ft 416 kts 222°
2026-04-22 20:24 44.95504 -4.41813 39102 ft 416 kts 222°
2026-04-22 20:24 44.91101 -4.47045 39097 ft 416 kts 222°
2026-04-22 20:25 44.86669 -4.52301 39098 ft 415 kts 222°
2026-04-22 20:25 44.82240 -4.57544 39103 ft 415 kts 222°
2026-04-22 20:26 44.77801 -4.62786 39105 ft 415 kts 222°
2026-04-22 20:26 44.73396 -4.67978 39106 ft 415 kts 221°
2026-04-22 20:27 44.68975 -4.73178 39110 ft 415 kts 221°
2026-04-22 20:27 44.64545 -4.78377 39110 ft 415 kts 221°
2026-04-22 20:28 44.60105 -4.83579 39107 ft 415 kts 221°
2026-04-22 20:28 44.55695 -4.88733 39110 ft 415 kts 221°
2026-04-22 20:29 44.51246 -4.93921 39109 ft 415 kts 220°
2026-04-22 20:29 44.46558 -4.98656 39114 ft 416 kts 217°
2026-04-22 20:30 44.41853 -5.03307 39110 ft 415 kts 217°
2026-04-22 20:30 44.37140 -5.08029 39105 ft 416 kts 217°
2026-04-22 20:31 44.32466 -5.12713 39110 ft 415 kts 217°
2026-04-22 20:31 44.27763 -5.17418 39113 ft 415 kts 217°
2026-04-22 20:32 44.23060 -5.22113 39105 ft 415 kts 217°
2026-04-22 20:32 44.18355 -5.26801 39111 ft 415 kts 217°
2026-04-22 20:33 44.13678 -5.31452 39105 ft 415 kts 217°
2026-04-22 20:33 44.08980 -5.36115 39106 ft 415 kts 217°
2026-04-22 20:34 44.04271 -5.40779 39105 ft 414 kts 217°
2026-04-22 20:34 43.99567 -5.45429 39105 ft 414 kts 216°
2026-04-22 20:35 43.94909 -5.50024 39103 ft 414 kts 216°
2026-04-22 20:35 43.90210 -5.54651 39109 ft 413 kts 216°
2026-04-22 20:36 43.85522 -5.59258 39103 ft 413 kts 216°
2026-04-22 20:36 43.80817 -5.63872 39109 ft 413 kts 216°
2026-04-22 20:37 43.76109 -5.68480 39104 ft 413 kts 216°
2026-04-22 20:37 43.71437 -5.73044 39107 ft 413 kts 216°
2026-04-22 20:38 43.66741 -5.77622 39104 ft 413 kts 216°
2026-04-22 20:38 43.62044 -5.82193 39104 ft 412 kts 216°
2026-04-22 20:39 43.57351 -5.86751 39104 ft 412 kts 216°
2026-04-22 20:39 43.52688 -5.91270 39103 ft 412 kts 216°
2026-04-22 20:40 43.47996 -5.95810 39102 ft 412 kts 216°
2026-04-22 20:40 43.43292 -6.00352 39101 ft 412 kts 216°
2026-04-22 20:41 43.38591 -6.04882 39099 ft 412 kts 216°
2026-04-22 20:41 43.33888 -6.09406 39099 ft 413 kts 216°
2026-04-22 20:42 43.29216 -6.13890 39095 ft 413 kts 216°
2026-04-22 20:42 43.24502 -6.18408 39096 ft 413 kts 215°
2026-04-22 20:43 43.19785 -6.22918 39091 ft 413 kts 215°
2026-04-22 20:43 43.15067 -6.27422 39081 ft 413 kts 215°
2026-04-22 20:44 43.10381 -6.31886 39080 ft 413 kts 215°
2026-04-22 20:44 43.05651 -6.36383 39071 ft 412 kts 215°
2026-04-22 20:45 43.00948 -6.40846 39067 ft 412 kts 215°
2026-04-22 20:45 42.96267 -6.45280 39062 ft 411 kts 215°
2026-04-22 20:46 42.89220 -6.51940 39051 ft 410 kts 215°
2026-04-22 20:46 42.84552 -6.56341 39053 ft 409 kts 215°
2026-04-22 20:47 42.79872 -6.60744 39042 ft 408 kts 215°
2026-04-22 20:47 42.75202 -6.65130 39032 ft 408 kts 215°
2026-04-22 20:48 42.71313 -6.68776 39033 ft 407 kts 215°
2026-04-22 20:48 42.65888 -6.73854 39025 ft 407 kts 215°
2026-04-22 20:49 42.61232 -6.78203 38658 ft 403 kts 215°
2026-04-22 20:49 42.59666 -6.79664 38212 ft 402 kts 215°
2026-04-22 20:49 42.57410 -6.81767 37898 ft 394 kts 215°
2026-04-22 20:50 42.55179 -6.83844 37648 ft 383 kts 215°
2026-04-22 20:50 42.52984 -6.85887 37215 ft 384 kts 215°
2026-04-22 20:50 42.50763 -6.87951 36642 ft 387 kts 215°
2026-04-22 20:50 42.48535 -6.90022 36149 ft 390 kts 215°
2026-04-22 20:51 42.46305 -6.92093 35679 ft 389 kts 216°
2026-04-22 20:51 42.44078 -6.94158 35212 ft 386 kts 216°
2026-04-22 20:51 42.41869 -6.96205 34743 ft 383 kts 216°
2026-04-22 20:51 42.39668 -6.98244 34279 ft 381 kts 216°
2026-04-22 20:52 42.37511 -7.00239 33783 ft 379 kts 216°
2026-04-22 20:52 42.35342 -7.02244 33271 ft 376 kts 216°
2026-04-22 20:52 42.33197 -7.04225 32843 ft 372 kts 216°
2026-04-22 20:52 42.31072 -7.06187 32409 ft 368 kts 216°
2026-04-22 20:53 42.28980 -7.08126 32178 ft 359 kts 217°
2026-04-22 20:53 42.27075 -7.10267 31796 ft 354 kts 228°
2026-04-22 20:53 42.25741 -7.13028 31370 ft 351 kts 244°
2026-04-22 20:53 42.24742 -7.16066 31045 ft 356 kts 244°
2026-04-22 20:54 42.23610 -7.19052 30666 ft 359 kts 238°
2026-04-22 20:54 42.22268 -7.21899 30236 ft 358 kts 237°
2026-04-22 20:54 42.20953 -7.24685 29787 ft 356 kts 237°
2026-04-22 20:54 42.19620 -7.27530 29331 ft 352 kts 237°
2026-04-22 20:55 42.18331 -7.30285 28914 ft 349 kts 237°
2026-04-22 20:55 42.17038 -7.33051 28504 ft 346 kts 237°
2026-04-22 20:55 42.15772 -7.35760 28094 ft 343 kts 237°
2026-04-22 20:55 42.14506 -7.38463 27694 ft 340 kts 237°
2026-04-22 20:56 42.13246 -7.41153 27303 ft 337 kts 237°
2026-04-22 20:56 42.11995 -7.43822 26918 ft 335 kts 237°
2026-04-22 20:56 42.10748 -7.46480 26423 ft 336 kts 237°
2026-04-22 20:56 42.09495 -7.49147 25923 ft 337 kts 236°
2026-04-22 20:57 42.08239 -7.51820 25427 ft 339 kts 236°
2026-04-22 20:57 42.06990 -7.54475 24959 ft 340 kts 236°
2026-04-22 20:57 42.05725 -7.57161 24482 ft 341 kts 236°
2026-04-22 20:57 42.04454 -7.59858 24016 ft 342 kts 236°
2026-04-22 20:58 42.03174 -7.62571 23543 ft 343 kts 236°
2026-04-22 20:58 42.01893 -7.65284 22999 ft 344 kts 236°
2026-04-22 20:58 42.00608 -7.68004 22466 ft 345 kts 236°
2026-04-22 20:58 41.99320 -7.70727 21934 ft 346 kts 236°
2026-04-22 20:59 41.98021 -7.73468 21407 ft 346 kts 236°
2026-04-22 20:59 41.96743 -7.76167 20897 ft 347 kts 236°
2026-04-22 20:59 41.95443 -7.78908 20411 ft 347 kts 236°
2026-04-22 20:59 41.94142 -7.81648 19910 ft 348 kts 236°
2026-04-22 21:00 41.92840 -7.84389 19416 ft 349 kts 236°
2026-04-22 21:00 41.91524 -7.87155 18931 ft 350 kts 236°
2026-04-22 21:00 41.90210 -7.89914 18451 ft 351 kts 236°
2026-04-22 21:00 41.88891 -7.92684 17916 ft 351 kts 236°
2026-04-22 21:01 41.87590 -7.95411 17383 ft 351 kts 235°
2026-04-22 21:01 41.86271 -7.98174 16845 ft 351 kts 235°
2026-04-22 21:01 41.84947 -8.00946 16321 ft 352 kts 235°
2026-04-22 21:01 41.83626 -8.03707 15803 ft 352 kts 235°
2026-04-22 21:02 41.82287 -8.06465 15294 ft 351 kts 232°
2026-04-22 21:02 41.80622 -8.08800 14804 ft 344 kts 218°
2026-04-22 21:02 41.78651 -8.10580 14323 ft 341 kts 204°
2026-04-22 21:02 41.76442 -8.11618 13870 ft 339 kts 197°
2026-04-22 21:03 41.74220 -8.12682 13405 ft 338 kts 199°
2026-04-22 21:03 41.72014 -8.13756 12966 ft 336 kts 199°
2026-04-22 21:03 41.69831 -8.14819 12610 ft 332 kts 199°
2026-04-22 21:03 41.67670 -8.15869 12268 ft 328 kts 199°
2026-04-22 21:04 41.65532 -8.16908 11924 ft 324 kts 199°
2026-04-22 21:04 41.63451 -8.17918 11629 ft 319 kts 198°
2026-04-22 21:04 41.61381 -8.18921 11343 ft 314 kts 198°
2026-04-22 21:04 41.59341 -8.19911 11067 ft 309 kts 198°
2026-04-22 21:05 41.57324 -8.20888 10792 ft 306 kts 198°
2026-04-22 21:05 41.55337 -8.21850 10518 ft 301 kts 198°
2026-04-22 21:05 41.53388 -8.22792 10285 ft 296 kts 198°
2026-04-22 21:05 41.51462 -8.23724 10056 ft 290 kts 198°
2026-04-22 21:06 41.49575 -8.24635 9821 ft 287 kts 198°
2026-04-22 21:06 41.47728 -8.25527 9573 ft 284 kts 198°
2026-04-22 21:06 41.45873 -8.26422 9323 ft 283 kts 198°
2026-04-22 21:06 41.44032 -8.27310 9092 ft 280 kts 198°
2026-04-22 21:07 41.42202 -8.28192 8866 ft 279 kts 198°
2026-04-22 21:07 41.40373 -8.29072 8647 ft 278 kts 197°
2026-04-22 21:07 41.38557 -8.29947 8429 ft 277 kts 197°
2026-04-22 21:07 41.36741 -8.30821 8201 ft 276 kts 197°
2026-04-22 21:08 41.34938 -8.31688 7993 ft 275 kts 197°
2026-04-22 21:08 41.33754 -8.32258 7848 ft 272 kts 197°
2026-04-22 21:08 41.32994 -8.32622 7756 ft 270 kts 197°
2026-04-22 21:09 41.31240 -8.33464 7550 ft 264 kts 197°
2026-04-22 21:09 41.29526 -8.34287 7351 ft 260 kts 197°
2026-04-22 21:09 41.27840 -8.35096 7151 ft 255 kts 197°
2026-04-22 21:09 41.26185 -8.35889 6964 ft 251 kts 197°
2026-04-22 21:10 41.24556 -8.36669 6778 ft 248 kts 197°
2026-04-22 21:10 41.22963 -8.37432 6593 ft 243 kts 197°
2026-04-22 21:10 41.21384 -8.38188 6407 ft 239 kts 197°
2026-04-22 21:10 41.19831 -8.38931 6239 ft 237 kts 197°
2026-04-22 21:11 41.18284 -8.39671 6068 ft 233 kts 197°
2026-04-22 21:11 41.16770 -8.40395 5889 ft 229 kts 197°
2026-04-22 21:11 41.15283 -8.41105 5709 ft 225 kts 197°
2026-04-22 21:11 41.13813 -8.41807 5540 ft 224 kts 197°
2026-04-22 21:12 41.12361 -8.42500 5371 ft 224 kts 197°
2026-04-22 21:12 41.10898 -8.43198 5200 ft 223 kts 197°
2026-04-22 21:12 41.09436 -8.43895 5032 ft 223 kts 197°
2026-04-22 21:12 41.07977 -8.44590 4873 ft 221 kts 198°
2026-04-22 21:13 41.06531 -8.45278 4722 ft 221 kts 198°
2026-04-22 21:13 41.05089 -8.45965 4545 ft 217 kts 198°
2026-04-22 21:13 41.03683 -8.46634 4359 ft 213 kts 198°
2026-04-22 21:13 41.02315 -8.47284 4186 ft 211 kts 198°
2026-04-22 21:14 41.01015 -8.48141 3997 ft 213 kts 221°
2026-04-22 21:14 41.00229 -8.49804 3845 ft 213 kts 252°
2026-04-22 21:14 40.99919 -8.51720 3746 ft 211 kts 258°
2026-04-22 21:14 40.99634 -8.53595 3629 ft 202 kts 257°
2026-04-22 21:15 40.99357 -8.55370 3540 ft 194 kts 257°
2026-04-22 21:15 40.99083 -8.57105 3434 ft 192 kts 257°
2026-04-22 21:15 40.98911 -8.58855 3314 ft 192 kts 276°
2026-04-22 21:15 40.99418 -8.60452 3188 ft 188 kts 311°
2026-04-22 21:16 41.00461 -8.61368 3083 ft 176 kts 339°
2026-04-22 21:16 41.01609 -8.61868 3052 ft 175 kts 344°
2026-04-22 21:16 41.02790 -8.62282 3011 ft 175 kts 346°
2026-04-22 21:16 41.03977 -8.62645 2984 ft 175 kts 348°
2026-04-22 21:17 41.05171 -8.62979 2971 ft 175 kts 349°
2026-04-22 21:17 41.06364 -8.63298 2982 ft 175 kts 349°
2026-04-22 21:17 41.07556 -8.63613 2985 ft 175 kts 349°
2026-04-22 21:17 41.08752 -8.63927 2999 ft 175 kts 349°
2026-04-22 21:18 41.09907 -8.64229 2874 ft 165 kts 349°
2026-04-22 21:18 41.10976 -8.64509 2708 ft 152 kts 349°
2026-04-22 21:18 41.11999 -8.64776 2508 ft 148 kts 348°
2026-04-22 21:18 41.13009 -8.65040 2319 ft 147 kts 348°
2026-04-22 21:19 41.14014 -8.65302 2128 ft 147 kts 348°
2026-04-22 21:19 41.15014 -8.65562 1934 ft 146 kts 349°
2026-04-22 21:19 41.16008 -8.65822 1727 ft 144 kts 349°
2026-04-22 21:19 41.16990 -8.66080 1522 ft 144 kts 349°
2026-04-22 21:20 41.17979 -8.66339 1341 ft 146 kts 349°
2026-04-22 21:20 41.18975 -8.66606 1168 ft 146 kts 348°
2026-04-22 21:20 41.19973 -8.66866 971 ft 147 kts 349°
2026-04-22 21:20 41.20964 -8.67126 738 ft 143 kts 349°
2026-04-22 21:21 41.21922 -8.67379 560 ft 139 kts 349°
2026-04-22 21:21 41.22869 -8.67624 379 ft 141 kts 349°
2026-04-22 21:21 41.23806 -8.67864 237 ft 130 kts 349°
2026-04-22 21:21 41.24610 -8.68074 207 ft 104 kts 348°
2026-04-22 21:22 41.24976 -8.68170 188 ft 28 kts 349°
2026-04-22 21:22 41.25201 -8.68141 182 ft 36 kts 15°
2026-04-22 21:22 41.25298 -8.68062 177 ft 7 kts 84°
2026-04-22 21:22 41.25264 -8.68018 180 ft 9 kts 165°
2026-04-22 21:23 41.25175 -8.67993 190 ft 17 kts 168°
2026-04-22 21:23 41.25047 -8.67959 186 ft 20 kts 168°
2026-04-22 21:23 41.24914 -8.67923 195 ft 20 kts 164°
2026-04-22 21:23 41.24789 -8.67846 203 ft 18 kts 160°
2026-04-22 21:24 41.24678 -8.67807 210 ft 15 kts 169°
2026-04-22 21:24 41.24574 -8.67779 219 ft 16 kts 168°
2026-04-22 21:24 41.24444 -8.67744 221 ft 22 kts 168°
2026-04-22 21:24 41.24309 -8.67704 229 ft 15 kts 150°
2026-04-22 21:25 41.24244 -8.67605 236 ft 13 kts 126°
2026-04-22 21:25 41.24188 -8.67516 239 ft 13 kts 134°
2026-04-22 21:25 41.24114 -8.67451 239 ft 13 kts 156°
2026-04-22 21:25 41.24030 -8.67420 239 ft 10 kts 169°
2026-04-22 21:26 41.23969 -8.67411 239 ft 6 kts 142°
2026-04-22 21:26 41.23947 -8.67370 239 ft 5 kts 124°
2026-04-22 21:26 41.23931 -8.67337 239 ft 4 kts 124°
2026-04-22 21:26 41.23925 -8.67327 239 ft 0 kts 124°
2026-04-22 21:27 41.23924 -8.67325 239 ft 0 kts 124°